Regional Weather Roundup
Issued by NWS New Orleans/Baton Rouge, LA

Home | Current Version | Previous Version | Text Only | Print | Product List | Glossary On
Versions: 1 2 3 4 5 6 7 8 9 10 11 12 13 14 15 16 17 18 19 20 21 22 23 24 25 26 27 28 29 30 31 32 33 34 35 36 37 38 39 40 41 42 43 44 45 46 47 48 49 50
000
ASUS44 KLIX 051211
RWRLIX
NEW ORLEANS REGIONAL WEATHER ROUNDUP
NATIONAL WEATHER SERVICE NEW ORLEANS LA
700 AM CDT TUE MAY 05 2015

NOTE: "FAIR" INDICATES FEW OR NO CLOUDS BELOW 12,000 FEET WITH NO
      SIGNIFICANT WEATHER AND/OR OBSTRUCTIONS TO VISIBILITY.
      SKY/WX - SKY CONDITION AND SIGNIFICANT WEATHER.
      TMP - AIR TEMPERATURE.     DP    - DEWPOINT TEMPERATURE.
      RH  - RELATIVE HUMIDITY.   PRES  - PRESSURE.
      HI  - HEAT INDEX.          WCI   - WIND CHILL INDEX.

*  THESE STATIONS ARE NOT NWS OR FAA STATIONS AND ARE NOT UNDER
   NWS QUALITY CONTROL.

LAZ038-040-048-061>063-065>067-069-051300-
SOUTHEAST LOUISIANA

CITY           SKY/WX    TMP DP  RH WIND       PRES   REMARKS
N.O. AUDUBON     N/A     70  64  81 MISG        N/A
6HR MIN TEMP:  69; 6HR MAX TEMP:  71;

N.O. INTL ARPT CLEAR     70  62  76 E5        30.15R
6HR MIN TEMP:  68; 6HR MAX TEMP:  72;

N.O. LAKEFRONT CLEAR     73  65  75 E9        30.16R
6HR MIN TEMP:  71; 6HR MAX TEMP:  73;

SLIDELL        CLEAR     59  59 100 NE3       30.16R
6HR MIN TEMP:  57; 6HR MAX TEMP:  62;

BATON ROUGE    CLEAR     64  62  93 NE5       30.15R
6HR MIN TEMP:  63; 6HR MAX TEMP:  67;

BOOTHVILLE     CLEAR     69  65  86 E5        30.15R
6HR MIN TEMP:  69; 6HR MAX TEMP:  70;

BELLE CHASSE   PTCLDY    68  63  84 NE6       30.14R
6HR MIN TEMP:  67; 6HR MAX TEMP:  71;

BOGALUSA*        N/A     57  54  89 CALM      30.19R
6HR MIN TEMP:  56; 6HR MAX TEMP:  63;

GALLIANO*      SUNNY     73  66  79 CALM      30.14R
6HR MIN TEMP:  72; 6HR MAX TEMP:  73;

NEW ROADS*       N/A     65  63  92 E5        30.15R
6HR MIN TEMP:  64; 6HR MAX TEMP:  69;

GONZALES*        N/A     67  66  96 CALM      30.14R
6HR MIN TEMP:  64; 6HR MAX TEMP:  68;

HAMMOND*       CLEAR     64  61  88 E5        30.18R
HOUMA*         CLEAR     66  64  94 CALM      30.13R
PORT FOURCHON* MOSUNNY   75  66  73 E17       30.15R

$$

MSZ070-080>082-051300-
SOUTHERN MISSISSIPPI

CITY           SKY/WX    TMP DP  RH WIND       PRES   REMARKS
MCCOMB         CLEAR     62  60  93 E3        30.18R
6HR MIN TEMP:  61; 6HR MAX TEMP:  66;

GULFPORT       PTCLDY    66  61  84 NE5       30.18R
6HR MIN TEMP:  64; 6HR MAX TEMP:  73;

BILOXI         PTCLDY    67  65  94 E8        30.18R
6HR MIN TEMP:  63; 6HR MAX TEMP:  73;

PASCAGOULA     SUNNY     64  62  93 NE6       30.20R
6HR MIN TEMP:  56; 6HR MAX TEMP:  64;

STENNIS ARPT*  CLEAR     63  57  82 MISG      30.17

$$

COASTAL OBSERVATIONS
LAKE AND NEARSHORE STATIONS

STATION/POSITION TIME  TEMP    WIND        PRES    WAVE
                       AIR SEA DIR/SP/G            HT/PER
                 (UTC) (F)     (DEG/KT/KT) (MB)    (FT/S)
PASCAGOULA       1100   69      80/  7/ 10 1021.3
WAVELAND YACHT   1100   69 73   80/  8/ 10 1021.2
GRAND ISLE       1106   73 75  110/  9/ 15 1019.8
SOUTHWEST PASS   1100   74 66  110/ 18/ 20 1020.5
NEW CANAL        1106   69 74   CALM  /  2 1021.0
SHELL BEACH      1100   71 74  100/  7/  8 1020.1

OFFSHORE STATIONS

STATION/POSITION TIME  TEMP    WIND        PRES    WAVE
                       AIR SEA DIR/SP/G            HT/PER
                 (UTC) (F)     (DEG/KT/KT) (MB)    (FT/S)
64 S DAUPHIN ISL 1150   75 75  100/ 17/ 19 1021.3    6/ 9

$$




USA.gov is the U.S. government's official web portal to all federal, state and local government web resources and services.